Location: North Evanston
(42.0634°N, 87.6976°W)
Time: 14:35:12
(UTC+00:00)

Injun/Solrad 3 - Pass Details

Date: 12 May 2026
Orbit: 867 x 989 km, 66.8° (Epoch: 7 June)

Event Time Altitude Azimuth Distance (km) Brightness Sun altitude
Rises 20:09:18 0° 154° (SSE) 3,492 10.9 51.6°
Reaches altitude 10° 20:13:11 10° 128° (SE) 2,584 10.2 51.0°
Maximum altitude 20:15:53 13° 101° (E) 2,370 9.9 50.5°
Drops below altitude 10° 20:18:39 10° 74° (ENE) 2,631 10.0 50.1°
Sets 20:22:39 0° 49° (NE) 3,610 10.6 49.4°
